Regional Weather Roundup
Issued by NWS Sterling, VA

Home | Current Version | Previous Version | Text Only | Print | Product List | Glossary Off
Versions: 1 2 3 4 5 6 7 8 9 10 11 12 13 14 15 16 17 18 19 20 21 22 23 24 25 26 27

000
ASUS41 KLWX 221410
RWRLWX

REGIONAL WEATHER ROUNDUP
NATIONAL WEATHER SERVICE BALTIMORE MD/WASHINGTON DC
1000 AM EDT WED MAR 22 2017

Note: "FAIR" indicates few or no clouds below 12,000 feet
with no significant weather and/or obstructions to visibility.
 TC=TEMPERATURE CELSIUS

 * =Non NWS site. Station does not report precipitation (e.g. rain,
    snow, etc.), thunder, or fog.

DCZ001-MDZ009-015-VAZ040>042-051-053>054-221500-
WASHINGTON METRO

CITY           SKY/WX    TMP DP  RH WIND       PRES   REMARKS
WASHINGTON NAT MOSUNNY   41  16  36 NW23G35   30.23R
DULLES         MOSUNNY   38  13  35 NW23G33   30.22R WCI  27
ANDREWS AFB    SUNNY     40  17  39 NW26G35   30.18R
FT BELVOIR     SUNNY     40  12  31 NW22G31   30.23R
QUANTICO       MOSUNNY   43  20  39 N17G37    30.24R
COLLEGE PARK*  SUNNY     39  18  41 NW16G28   30.21R
LEESBURG*      SUNNY     37  18  44 N21G32    30.25R WCI  27
MANASSAS*      SUNNY     40  17  39 N25G32    30.24R
GAITHERSBURG*  SUNNY     37  16  41 NW16G23   30.25R WCI  28

$$

MDZ006>007-011-014-221500-
BALTIMORE METRO

CITY           SKY/WX    TMP DP  RH WIND       PRES   REMARKS
BWI AIRPORT    MOSUNNY   41  15  35 N16G29    30.19R
MD SCIENCE CTR   N/A     42  12  29 MISG      30.20R
MARTIN STATE   MOSUNNY   43  19  39 NW15G29   30.19R
ANNAPOLIS      SUNNY     42  21  43 NW21G32   30.18R
FORT MEADE*    SUNNY     43  19  39 N15G23    30.22R

$$

MDZ012-015-019>023-221500-
MARYLAND EASTERN SHORE

CITY           SKY/WX    TMP DP  RH WIND       PRES   REMARKS
OCEAN CITY     SUNNY     48  27  44 NW21G30   30.07R
SALISBURY      SUNNY     47  26  44 NW18G33   30.09R
BAY BRIDGE AP* SUNNY     43  23  45 NW21G28   30.18R
CAMBRIDGE*     MOSUNNY   43  23  45 NW25G33   30.13R
EASTON*        MOSUNNY   45  18  33 N23G31    30.18R

$$

MDZ017>025-221500-
SOUTHERN MARYLAND

CITY           SKY/WX    TMP DP  RH WIND       PRES   REMARKS
PATUXENT RIVER MOSUNNY   46  29  51 NW23G33   30.14R
ST INIGOES       N/A     46  26  45 NW14G26   30.13R
LEONARDTOWN*   SUNNY     43  23  45 NW13G25   30.17R

$$

MDZ003>005-221500-
NORTH CENTRAL MARYLAND

CITY           SKY/WX    TMP DP  RH WIND       PRES   REMARKS
FREDERICK*     SUNNY     45  21  39 N16G24    30.26R
HAGERSTOWN APT SUNNY     36  15  42 NW24G33   30.23R WCI  24
WESTMINSTER*   MOSUNNY   37  18  44 NW13G25   30.18R

$$

MDZ501>502-221500-
WESTERN MARYLAND

CITY           SKY/WX    TMP DP  RH WIND       PRES   REMARKS
OAKLAND*       PTSUNNY   23  12  63 NW8G17    30.19R WCI  14
CUMBERLAND*    SUNNY     34  10  37 NW17G28   30.33R WCI  23

$$

VAZ025>031-221500-
SHENANDOAH VALLEY

CITY           SKY/WX    TMP DP  RH WIND       PRES   REMARKS
WINCHESTER*    SUNNY     34  14  44 NW17G28   30.25S WCI  23
FRONT ROYAL*   SUNNY     34  12  40 NW14G23   30.25R WCI  24
LURAY*         SUNNY     37  18  44 N10G23    30.23R
NEW MARKET*    SUNNY     38  14  38 N13G20    30.23R
STAUNTON*      SUNNY     39  21  48 N9        30.22R
WAYNESBORO*    MOSUNNY   40  20  45 NW15G24   30.17R

$$

WVZ021-048>050-054>055-221500-
EASTERN WEST VIRGINIA PANHANDLE

CITY           SKY/WX    TMP DP  RH WIND       PRES   REMARKS
MARTINSBURG    SUNNY     37  12  35 N23G33    30.25R WCI  26
PETERSBURG*    SUNNY     36  15  42 NW14G21   30.29R WCI  27

$$

VAZ036>039-050-221500-
CENTRAL FOOTHILLS

CITY           SKY/WX    TMP DP  RH WIND       PRES   REMARKS
CHARLOTTESVILL SUNNY     44  15  31 N16G26    30.21R
CULPEPER*      SUNNY     41  19  41 N14G21    30.24R
ORANGE*        SUNNY     41  23  48 N14G20    30.23R
GORDONSVILLE*  MOSUNNY   43  24  46 NE7       30.20R
WARRENTON*     SUNNY     41  14  33 NW18G24   30.23R

$$

VAZ055>057-221500-
NORTH AND CENTRAL PIEDMONT

CITY           SKY/WX    TMP DP  RH WIND       PRES   REMARKS
FREDERICKSBRG* SUNNY     42  22  45 NW23G33   30.20R
STAFFORD*      SUNNY     41  22  46 NW16G25   30.26R

$$

NCZ024-NYZ072-PAZ021-071-VAZ022-071-221500-
OTHER REGIONAL OBSERVATIONS

CITY           SKY/WX    TMP DP  RH WIND       PRES   REMARKS
NEW YORK CITY    N/A     35  13  40 NW14G31   30.08R WCI  26
PHILADELPHIA   MOSUNNY   39  11  31 NW29G40   30.15R WCI  27
PITTSBURGH     PTSUNNY   28  14  55 N15G23    30.36R WCI  16
ROANOKE        MOSUNNY   47  23  38 N15G26    30.18R
RICHMOND       MOSUNNY   48  26  42 N26G36    30.15R
RALEIGH        PTSUNNY   58  40  51 VRB6G16   30.08R

$$

ANZ530>537-221500-
MARINE OBSERVATIONS

STATION/POSITION TIME  TEMP    WIND        PRES
                       AIR SEA DIR/SP/G
                 (UTC) (F)     (DEG/KT/KT) (MB)
THOMAS PT LIGHT  1400   40 43  340/ 24/ 28   N/A
BALT KEY BRIDGE  1348   39     330/ 19/ 22 1022.0R
COVE POINT       1348   42      10/ 16/ 27 1021.3R
LEWISETTA        1348   44 48  350/ 20/ 28 1020.3R
SOLOMONS ISLAND  1348   44 45  330/ 16/ 24   N/A
PINEY POINT      1348          340/ 28/ 30   N/A

$$





USA.gov is the U.S. government's official web portal to all federal, state and local government web resources and services.